Weather History for KMLE - February, 2013

Change the Weather History Date:

Friday, February 15, 2013

  Actual Average (KOMA) Record (KOMA)
Temperature  
Mean Temperature 24 °F 28 °F  
Max Temperature 32 °F 38 °F 74 °F (1921)
Min Temperature 15 °F 18 °F -12 °F (1936)
Degree Days  
Heating Degree Days 42 37  
Month to date heating degree days 583  
Since 1 July heating degree days 4348  
Cooling Degree Days 0 0  
Month to date cooling degree days 0  
Year to date cooling degree days 0  
Moisture  
Dew Point 20 °F    
Average Humidity 85    
Maximum Humidity 100    
Minimum Humidity 51    
Precipitation  
Precipitation 0.00 in 0.03 in 0.58 in (2003)
Month to date precipitation 0.41  
Year to date precipitation 1.13  
Snow  
Snow 0.00 in 0.30 in - ()
Month to date snowfall 3.5  
Since 1 July snowfall 18.6  
Snow Depth -    
Sea Level Pressure  
Sea Level Pressure 30.33 in    
Wind  
Wind Speed 8 mph (NW)    
Max Wind Speed 15 mph    
Max Gust Speed 20 mph    
Visibility 9 miles    
Events Snow    
T = Trace of Precipitation, MM = Missing Value Source: NWS Daily Summary

Daily Weather History Graph

Daily Weather History Graph

Search for Another Location

Airport or City:

Trip Planner

Search our weather history database for the weather conditions in past years. The results will help you decide how hot, cold, wet, or windy it might be!

Date:

Astronomy

Feb. 15, 2013 Rise Set
Actual Time 7:18 AM CST 5:58 PM CST
Civil Twilight 6:50 AM CST 6:27 PM CST
Nautical Twilight 6:18 AM CST 6:59 PM CST
Astronomical Twilight 5:46 AM CST 7:31 PM CST
Moon 9:51 AM CST (2/15) No Moon Set
Length of Visible Light 11h 36m
Length of Day
10h 40m
Waxing Crescent, 30% of the Moon is Illuminated
Feb 15
Waxing Crescent
Feb 17
First Quarter
Feb 25
Full
Mar 4
Last Quarter
Mar 11
New

Hourly Weather History & Observations

Time (CST) Temp. Windchill Dew Point Humidity Pressure Visibility Wind Dir Wind Speed Gust Speed Precip Events Conditions
12:15 AM 22.1 °F 8.9 °F 16.5 °F 79% 30.29 in 10.0 mi NW 15.0 mph 18.4 mph N/A   Clear
12:35 AM 21.6 °F 9.9 °F 19.8 °F 93% 30.30 in 10.0 mi NNW 11.5 mph 19.6 mph N/A   Clear
12:55 AM 21.0 °F 11.4 °F 19.4 °F 93% 30.30 in 10.0 mi NNW 8.1 mph - N/A   Clear
1:15 AM 20.7 °F 9.5 °F 18.3 °F 91% 30.30 in 10.0 mi NW 10.4 mph 17.3 mph N/A   Clear
1:55 AM 19.4 °F 7.9 °F 17.8 °F 93% 30.31 in 10.0 mi NW 10.4 mph - N/A   Clear
2:15 AM 19.4 °F 7.9 °F 18.3 °F 96% 30.32 in 10.0 mi NW 10.4 mph 16.1 mph N/A   Clear
2:35 AM 19.2 °F 7.7 °F 18.1 °F 96% 30.33 in 10.0 mi NW 10.4 mph 17.3 mph N/A   Clear
2:55 AM 19.0 °F 6.8 °F 18.0 °F 96% 30.33 in 10.0 mi NW 11.5 mph - N/A   Clear
3:15 AM 18.9 °F 9.8 °F 18.7 °F 99% 30.33 in 10.0 mi NW 6.9 mph - N/A   Clear
3:35 AM 18.9 °F 9.8 °F 18.7 °F 99% 30.33 in 10.0 mi NW 6.9 mph - N/A   Clear
3:55 AM 17.1 °F 8.7 °F 17.1 °F 100% 30.33 in 10.0 mi WNW 5.8 mph - N/A   Clear
4:15 AM 17.8 °F 9.6 °F 17.8 °F 100% 30.34 in 10.0 mi NW 5.8 mph - N/A   Clear
4:35 AM 17.1 °F 8.7 °F 15.8 °F 95% 30.34 in 10.0 mi NW 5.8 mph - N/A   Clear
4:55 AM - - - N/A% 30.34 in 10.0 mi WNW 5.8 mph - N/A   Clear
5:15 AM 17.2 °F 8.9 °F 16.7 °F 98% 30.35 in 10.0 mi WNW 5.8 mph - N/A   Clear
5:35 AM 16.9 °F 7.4 °F 16.9 °F 100% 30.35 in 10.0 mi NW 6.9 mph - N/A   Clear
5:55 AM 16.2 °F 6.5 °F 16.0 °F 99% 30.35 in 10.0 mi WNW 6.9 mph - N/A   Clear
6:15 AM 16.5 °F 8.1 °F 16.5 °F 100% 30.35 in 10.0 mi WNW 5.8 mph - N/A   Clear
6:35 AM 15.8 °F 6.1 °F 15.8 °F 100% 30.35 in 10.0 mi NW 6.9 mph - N/A   Scattered Clouds
6:55 AM 17.1 °F 10.0 °F 16.9 °F 99% 30.35 in 10.0 mi WNW 4.6 mph - N/A   Mostly Cloudy
7:15 AM 18.3 °F 9.1 °F 18.3 °F 100% 30.35 in 10.0 mi NW 6.9 mph - N/A   Overcast
7:35 AM 19.4 °F 11.5 °F 14.9 °F 83% 30.35 in 10.0 mi NW 5.8 mph - N/A   Overcast
7:55 AM 19.4 °F 9.5 °F 14.9 °F 83% 30.35 in 10.0 mi WNW 8.1 mph - N/A   Overcast
8:15 AM 19.2 °F 14.1 °F 15.4 °F 85% 30.35 in 10.0 mi WNW 3.5 mph - N/A   Scattered Clouds
8:35 AM 21.0 °F 11.4 °F 16.2 °F 81% 30.36 in 10.0 mi West 8.1 mph - N/A   Clear
8:55 AM 22.1 °F 12.8 °F 17.2 °F 82% 30.36 in 10.0 mi WNW 8.1 mph - N/A   Clear
9:15 AM 23.5 °F 14.5 °F 18.3 °F 80% 30.36 in 10.0 mi WNW 8.1 mph - N/A   Clear
9:35 AM 24.6 °F 15.8 °F 19.2 °F 80% 30.36 in 10.0 mi West 8.1 mph - N/A   Clear
9:55 AM 25.2 °F 15.7 °F 18.9 °F 77% 30.35 in 10.0 mi NW 9.2 mph - N/A   Clear
10:15 AM 25.5 °F 16.9 °F 18.7 °F 75% 30.35 in 10.0 mi NW 8.1 mph - N/A   Clear
10:35 AM 27.1 °F 18.2 °F 18.7 °F 70% 30.35 in 10.0 mi WNW 9.2 mph - N/A   Clear
10:55 AM 28.2 °F 19.5 °F 17.2 °F 63% 30.35 in 10.0 mi NW 9.2 mph - N/A   Clear
11:15 AM 28.9 °F 19.8 °F 17.1 °F 61% 30.36 in 10.0 mi NW 10.4 mph - N/A   Scattered Clouds
11:55 AM 29.3 °F 19.1 °F 17.2 °F 61% 30.35 in 10.0 mi WNW 12.7 mph 18.4 mph N/A   Scattered Clouds
12:15 PM 29.8 °F 20.9 °F 17.1 °F 59% 30.34 in 10.0 mi NW 10.4 mph - N/A   Overcast
12:35 PM 30.0 °F 24.1 °F 16.0 °F 56% 30.33 in 10.0 mi NW 5.8 mph - N/A   Mostly Cloudy
12:55 PM 30.6 °F 23.8 °F 15.4 °F 54% 30.33 in 10.0 mi North 6.9 mph - N/A   Mostly Cloudy
1:15 PM 30.9 °F 23.5 °F 15.3 °F 52% 30.32 in 10.0 mi NW 8.1 mph - N/A   Overcast
1:35 PM 31.5 °F 24.2 °F 15.1 °F 51% 30.30 in 10.0 mi WNW 8.1 mph - N/A   Mostly Cloudy
1:55 PM 31.6 °F 23.1 °F 15.6 °F 52% 30.30 in 10.0 mi West 10.4 mph - N/A   Mostly Cloudy
2:15 PM 31.8 °F 25.4 °F 16.3 °F 53% 30.30 in 10.0 mi NNW 6.9 mph 10.4 mph N/A   Overcast
2:35 PM 31.8 °F 26.2 °F 17.4 °F 55% 30.30 in 10.0 mi West 5.8 mph - N/A   Overcast
2:55 PM 31.6 °F 26.0 °F 18.7 °F 59% 30.29 in 10.0 mi WNW 5.8 mph - N/A   Overcast
3:15 PM 31.8 °F - 18.9 °F 59% 30.29 in 10.0 mi Calm Calm - N/A   Overcast
3:35 PM 31.8 °F 27.3 °F 19.4 °F 60% 30.29 in 10.0 mi WNW 4.6 mph - N/A   Overcast
3:55 PM 32.0 °F - 19.8 °F 61% 30.29 in 10.0 mi Calm Calm - N/A   Overcast
4:15 PM 31.6 °F 28.3 °F 20.1 °F 62% 30.29 in 10.0 mi WNW 3.5 mph - N/A   Overcast
4:35 PM 31.5 °F 26.8 °F 20.3 °F 63% 30.28 in 10.0 mi North 4.6 mph - N/A   Mostly Cloudy
4:55 PM 31.1 °F 26.4 °F 20.5 °F 65% 30.29 in 10.0 mi NNW 4.6 mph - N/A   Overcast
5:15 PM 28.6 °F 24.8 °F 26.1 °F 90% 30.29 in 7.0 mi West 3.5 mph - N/A Snow Light Snow
5:35 PM 28.4 °F - 26.6 °F 93% 30.29 in 10.0 mi Calm Calm - N/A Snow Light Snow
5:55 PM 28.0 °F 22.8 °F 27.0 °F 96% 30.30 in 0.8 mi WNW 4.6 mph - N/A Snow Light Snow
6:15 PM 27.5 °F - 27.5 °F 100% 30.30 in 2.5 mi Calm Calm - N/A Snow Light Snow
6:35 PM 27.5 °F 23.6 °F 26.8 °F 97% 30.31 in 2.0 mi NNE 3.5 mph - N/A Snow Light Snow
6:55 PM 27.1 °F 21.8 °F 27.1 °F 100% 30.31 in 1.2 mi North 4.6 mph - N/A Snow Light Snow
7:15 PM 26.6 °F 21.2 °F 26.6 °F 100% 30.32 in 1.5 mi NNE 4.6 mph - N/A Snow Light Snow
7:35 PM 26.4 °F 22.4 °F 26.4 °F 100% 30.33 in 1.2 mi North 3.5 mph - N/A Snow Light Snow
7:55 PM 26.2 °F 19.6 °F 26.2 °F 100% 30.33 in 2.5 mi North 5.8 mph - N/A Snow Light Snow
8:15 PM 26.1 °F 20.5 °F 26.1 °F 100% 30.33 in 2.0 mi NNW 4.6 mph - N/A Snow Light Snow
8:35 PM 25.7 °F 20.1 °F 25.7 °F 100% 30.34 in 7.0 mi North 4.6 mph - N/A Snow Light Snow
8:55 PM 25.5 °F 19.9 °F 25.5 °F 100% 30.34 in 10.0 mi NNW 4.6 mph - N/A   Overcast
9:15 PM 24.3 °F 19.9 °F 24.3 °F 100% 30.34 in 10.0 mi North 3.5 mph - N/A   Scattered Clouds
9:35 PM 23.5 °F - 23.5 °F 100% 30.34 in 10.0 mi Calm Calm - N/A   Clear
9:55 PM 23.0 °F 18.4 °F 23.0 °F 100% 30.34 in 10.0 mi NW 3.5 mph - N/A   Scattered Clouds
10:15 PM 21.9 °F 15.7 °F 21.9 °F 100% 30.35 in 10.0 mi NW 4.6 mph - N/A   Mostly Cloudy
10:35 PM 22.1 °F 17.4 °F 22.1 °F 100% 30.35 in 10.0 mi WNW 3.5 mph - N/A   Overcast
10:55 PM 23.0 °F 14.7 °F 23.0 °F 100% 30.34 in 10.0 mi WNW 6.9 mph - N/A   Overcast
11:15 PM 23.0 °F 15.8 °F 23.0 °F 100% 30.34 in 10.0 mi NW 5.8 mph - N/A   Overcast
11:35 PM 23.4 °F 18.9 °F 23.4 °F 100% 30.34 in 10.0 mi NNW 3.5 mph - N/A   Overcast
11:55 PM 23.5 °F - 23.5 °F 100% 30.34 in 10.0 mi Calm Calm - N/A   Overcast